Location: *
(50.6089°N, 2.2719°E)
Time: 21:34:51
(UTC+00:00)

Falcon 9 debris - Pass Details

Date: 18 October 2019
Orbit: 430 x 438 km, 53.0° (Epoch: 13 November)

Event Time Altitude Azimuth Distance (km) Brightness Sun altitude
Rises 17:28:58 0° 283° (WNW) 2,404 ? -6.4°
Reaches altitude 10° 17:31:06 10° 287° (WNW) 1,538 ? -6.7°
Maximum altitude 17:34:32 60° 8° (N) 502 ? -7.2°
Enters shadow 17:37:54 10° 90° (E) 1,523 ? -7.8°
